Flag for U.S.A. Weather past 2 weeks in Evansville, Indiana, U.S.A.

Now
74 °F

Fog.


Feels Like: 72 °F
Forecast: 66 / 76 °F
Wind: 9 mph from Southwest

Location: Evansville Regional Airport

Current Time: Jul 1, 2015 at 12:11:03 PM

Latest Report: Jul 1, 2015 at 11:56 AM


Visibility: 3 mi

Pressure: 29.96 "Hg

Humidity: 91%

Dew point: 71 °F

Location of EvansvilleLocation

Historic Weather in Evansville — Graph

°F

Evansville temperature yesterday

Maximum temperature yesterday: 83 °F (at 1:54 PM)
Minimum temperature yesterday: 69 °F (at 12:54 AM)
Average temperature yesterday: 76 °F

Past Weeks' High & Low Weather Summary

 TemperatureHumidityPressure
High91 °F (Jun 25, 2:54 PM)97% (Jun 17, 5:54 AM)30.16 "Hg (Jun 17, 5:54 AM)
Low57 °F (Jun 28, 5:54 AM)42% (Jun 28, 9:54 AM)29.64 "Hg (Jun 20, 2:54 AM)
Average77 °F76%29.95 "Hg
* Reported Jun 16 10:54 AM — Jul 1 10:54 AM, Evansville, Weather by CustomWeather, © 2015

Note: Actual official high and low records may vary slightly from our data, if they occured in-between our weather recording intervals... More about our weather records

Advertising

Evansville weather history for previous 24 hours

 ConditionsComfort  
Time TempWeatherWind HumidityBarometerVisibility
10:54 AM
Wed, Jul 1
75 °FLight rain. Fog.8 mph88%29.95 "Hg3 mi
9:54 AM75 °FMostly cloudy.6 mph85%29.94 "Hg4 mi
8:54 AM74 °FFog.5 mph88%29.92 "Hg4 mi
7:54 AM73 °FFog.6 mph88%29.92 "Hg4 mi
6:54 AM71 °FFog.No wind93%29.90 "Hg4 mi
5:54 AM69 °FFog.No wind93%29.88 "Hg4 mi
4:54 AM70 °FFog.No wind90%29.87 "Hg5 mi
3:54 AM72 °FFog.6 mph87%29.88 "Hg6 mi
2:54 AM72 °FFog.6 mph87%29.88 "Hg6 mi
1:54 AM73 °FClear.6 mph84%29.88 "Hg6 mi
12:54 AM73 °FClear.5 mph84%29.89 "Hg6 mi
10:54 PM
Tue, Jun 30
73 °FClear.3 mph84%29.88 "Hg6 mi
9:54 PM74 °FPassing clouds.No wind82%29.88 "Hg7 mi
8:54 PM76 °FClear.5 mph77%29.86 "Hg7 mi
7:54 PM78 °FSunny.7 mph71%29.85 "Hg6 mi
6:54 PM80 °FSunny.7 mph64%29.83 "Hg7 mi
5:54 PM82 °FSunny.9 mph60%29.83 "Hg7 mi
4:54 PM83 °FSunny.13 mph59%29.83 "Hg7 mi
3:54 PM83 °FScattered clouds.9 mph57%29.84 "Hg7 mi
2:54 PM83 °FScattered clouds.10 mph61%29.85 "Hg8 mi
1:54 PM83 °FPartly sunny.9 mph59%29.85 "Hg8 mi
12:54 PM82 °FPartly sunny.10 mph63%29.87 "Hg8 mi
Weather by CustomWeather, © 2015

See weather overviewHow to use our weather pages